Terminal Aerodrome Forecast
Issued by NWS

Home | Current Version | Previous Version | Graphics & Text | Print | Product List | Glossary On
Versions: 1 2 3 4 5 6 7 8 9 10 11 12
346
FTUS42 KMHX 261121
TAFOAJ
TAF
KOAJ 261121Z 2612/2712 22005KT P6SM SCT250
     FM261600 22010G15KT P6SM SCT050
     FM270200 21006KT P6SM SCT250
      AMD LTD TO CLD VIS AND WIND=

USA.gov is the U.S. government's official web portal to all federal, state and local government web resources and services.